#timestamp,LO_Frequency,Hit 
1500645615.5,286046693.1,N
1500645635.3,286046692.9,N
1500645655.1,286046695.5,N
1500645675.9,286046693.0,N
1500645695.7,286046695.1,N
1500645715.5,286046694.9,N
1500645735.4,286046695.2,N
1500645755.2,286046695.1,N
1500645775.0,286046692.5,N
1500645775.9,286046692.5,N
1500645795.8,286046692.6,N
1500645815.6,286046692.9,N
1500645835.4,286046692.7,N
1500645855.3,286046693.3,N
1500645875.1,286046694.0,N
1500645876.0,286046694.0,N
1500645895.8,286046691.5,N
1500645915.7,286046692.0,N
1500645935.5,286046689.5,N
1500645955.3,286046692.2,N
1500645975.2,286046689.7,N
1500645995.9,286046690.1,N
1500646015.7,286046690.4,N
1500646035.5,286046689.8,N
1500646055.4,286046690.6,N
1500646075.2,286046690.3,N
1500646095.0,286046688.3,N
1500646095.9,286046688.3,N
1500646115.8,286046690.5,N
1500646135.6,286046690.3,N
1500646155.4,286046695.6,N
1500646175.3,286046708.0,N
1500646195.1,286046715.8,N
1500646215.8,286046718.3,N
1500646235.7,286046720.4,N
1500646255.5,286046716.0,N
1500646275.3,286046715.5,N
1500646295.2,286046712.6,N
1500646315.0,286046712.9,N
1500646315.9,286046712.9,N
1500646335.7,286046714.2,N
1500646355.6,286046713.5,N
1500646375.4,286046713.0,N
1500646395.2,286046710.7,N
1500646415.1,286046714.8,N
1500646416.0,286046714.8,N
1500646435.8,286046719.2,N
1500646455.6,286046715.4,N
1500646475.5,286046714.0,N
1500646495.3,286046715.3,N
1500646515.1,286046710.2,N
1500646535.8,286046708.1,N
1500646555.7,286046706.8,N
1500646575.5,286046706.5,N
1500646595.3,286046707.4,N
1500646615.2,286046708.9,N
1500646635.0,286046707.9,N
1500646635.9,286046707.9,N
1500646655.7,286046705.7,N
1500646675.6,286046704.3,N
1500646695.4,286046702.1,N
1500646715.2,286046702.6,N
1500646735.1,286046704.3,N
1500646736.0,286046704.3,N
1500646755.8,286046709.7,N
1500646775.6,286046706.0,N
1500646795.5,286046722.1,N
1500646815.3,286046740.2,N
1500646835.1,286046751.3,N
1500646855.9,286046763.9,N
1500646875.7,286046764.1,N
1500646895.5,286046771.5,N
1500646915.4,286046783.9,N
1500646935.2,286046788.0,N
1500646955.0,286046791.0,N
1500646955.9,286046791.0,N
1500646975.8,286046790.9,N
1500646995.6,286046799.5,N
1500647015.4,286046796.9,N
1500647035.3,286046797.3,N
1500647055.1,286046790.2,N
1500647056.0,286046790.2,N
1500647075.8,286046789.0,N
1500647095.7,286046782.3,N
1500647115.5,286046789.5,N
1500647135.3,286046792.3,N
1500647155.2,286046805.9,N
1500647175.9,286046805.6,N
1500647195.7,286046809.3,N
1500647215.6,286046816.9,N
1500647235.4,286046823.2,N
1500647255.2,286046811.9,N
1500647275.0,286046803.0,N
1500647276.0,286046803.0,N
1500647295.8,286046813.4,N
1500647315.6,286046830.2,N
1500647335.4,286046837.0,N
1500647355.3,286046830.2,N
1500647375.1,286046831.2,N
1500647395.8,286046828.7,N
1500647415.7,286046826.7,N
1500647435.5,286046828.0,N
1500647455.3,286046829.8,N
1500647475.2,286046842.2,N
1500647495.0,286046855.9,N
1500647495.9,286046855.9,N
1500647515.7,286046858.0,N
1500647535.6,286046853.3,N
1500647555.4,286046856.5,N
1500647575.2,286046865.2,N
1500647595.1,286046871.5,N
1500647596.0,286046871.5,N
1500647615.8,286046869.0,N
1500647635.6,286046869.3,N
1500647655.5,286046878.5,N
1500647675.3,286046879.9,N
1500647695.1,286046891.5,N
1500647715.9,286046903.7,N
1500647735.7,286046918.8,N
1500647755.5,286046927.2,N
1500647775.4,286046926.2,N
1500647795.2,286046920.0,N
1500647815.0,286046923.6,N
1500647815.9,286046923.6,N
1500647835.8,286046921.2,N
1500647855.6,286046916.4,N
1500647875.4,286046916.2,N
1500647895.3,286046921.4,N
1500647915.1,286046926.7,N
1500647916.0,286046926.7,N
1500647935.8,286046921.5,N
1500647955.7,286046923.5,N
1500647975.3,286046934.3,N
1500647995.1,286046942.0,N
1500648015.8,286046943.6,N
1500648035.7,286046950.0,N
1500648055.5,286046943.7,N
1500648075.3,286046940.9,N
1500648095.2,286046944.9,N
1500648115.9,286046947.1,N
1500648135.7,286046948.7,N
1500648155.6,286046944.9,N
1500648175.4,286046959.4,N
1500648195.2,286046967.4,N
1500648215.1,286046967.7,N
1500648216.0,286046967.7,N
1500648235.8,286046966.8,N
1500648255.6,286046968.2,N
1500648275.5,286046967.2,N
1500648295.3,286046962.8,N
1500648315.1,286046959.9,N
1500648335.9,286046964.6,N
1500648355.7,286046963.6,N
1500648375.5,286046968.7,N
1500648395.4,286046966.3,N
1500648415.2,286046973.3,N
1500648435.0,286046969.3,N
1500648435.9,286046969.3,N
1500648455.8,286046973.9,N
1500648475.6,286046967.4,N
1500648495.4,286046970.6,N
1500648515.3,286046966.1,N
1500648535.1,286046965.2,N
1500648536.0,286046965.2,N
1500648555.8,286046962.5,N
1500648575.7,286046948.9,N
1500648595.5,286046935.8,N
1500648615.3,286046926.9,N
1500648635.2,286046919.2,N
1500648655.9,286046927.5,N
1500648675.7,286046934.9,N
1500648695.5,286046934.2,N
1500648715.4,286046934.8,N
1500648735.2,286046925.5,N
1500648755.0,286046920.1,N
1500648755.9,286046920.1,N
1500648775.8,286046910.3,N
1500648795.6,286046904.6,N
1500648815.4,286046896.8,N
1500648835.3,286046892.0,N
1500648855.1,286046887.8,N
1500648875.8,286046898.8,N
1500648895.7,286046914.0,N
1500648915.5,286046919.2,N
1500648935.3,286046922.8,N
1500648955.2,286046935.4,N
1500648975.9,286046925.7,N
1500648995.7,286046914.5,N
1500649015.6,286046902.6,N
1500649035.4,286046894.4,N
1500649055.2,286046887.9,N
1500649075.1,286046883.8,N
1500649076.0,286046883.8,N
1500649095.8,286046879.1,N
1500649115.6,286046870.6,N
1500649135.5,286046867.4,N
1500649155.3,286046874.7,N
1500649175.1,286046872.8,N
1500649195.9,286046867.4,N
